When you browse on this site, cookies collect data to enhance your experience and personalize the content and advertising you see.
Visit our Privacy Policy to learn more. By continuing to use the site, you agree to this use of cookies and data.
  • In United Kingdom
  • List of Countries
  • For 7 days
  • Water Temperature
  • Satellite Maps
  • Weather Map
  • Weather Widgets
  • user-avatar
    Login

    Hourly Weather Polotsk

    Today, 16 February, Saturday

    Time Temperature Precipitation Wind Pressure Humidity
    00:00 0°C° 0 mm 5 mps 752 mmHg 95%
    01:00 0°C° 0 mm 5 mps 752 mmHg 96%
    02:00 0°C° 0 mm 5 mps 752 mmHg 96%
    03:00 0°C° 0 mm 5 mps 752 mmHg 96%
    04:00 -1°C° 0 mm 5 mps 752 mmHg 96%
    05:00 -1°C° 0 mm 5 mps 752 mmHg 95%
    06:00 -1°C° 0 mm 5 mps 751 mmHg 95%
    07:00 -1°C° 0 mm 4 mps 751 mmHg 95%
    08:00 -1°C° 0 mm 4 mps 751 mmHg 95%
    09:00 0°C° 0 mm 4 mps 751 mmHg 94%
    10:00 0°C° 0 mm 4 mps 751 mmHg 93%
    11:00 0°C° 0 mm 4 mps 751 mmHg 93%
    12:00 +1°C° 0 mm 4 mps 750 mmHg 90%
    13:00 +1°C° 0 mm 5 mps 750 mmHg 87%
    14:00 +2°C° 0 mm 5 mps 750 mmHg 85%
    15:00 +1°C° 0 mm 5 mps 750 mmHg 84%
    16:00 +1°C° 0 mm 5 mps 749 mmHg 83%
    17:00 +1°C° 0 mm 5 mps 749 mmHg 82%
    18:00 0°C° 0 mm 5 mps 748 mmHg 81%
    19:00 0°C° 0 mm 5 mps 748 mmHg 79%
    20:00 0°C° 0 mm 5 mps 747 mmHg 78%
    21:00 0°C° 0 mm 5 mps 747 mmHg 78%
    22:00 0°C° 0 mm 5 mps 747 mmHg 78%
    23:00 0°C° 0 mm 5 mps 746 mmHg 78%

    Tomorrow, 17 February, Sunday

    Time Temperature Precipitation Wind Pressure Humidity
    00:00 0°C° 0 mm 5 mps 746 mmHg 79%
    01:00 0°C° 0 mm 5 mps 746 mmHg 80%
    02:00 0°C° 0 mm 5 mps 745 mmHg 81%
    03:00 -1°C° 0 mm 5 mps 745 mmHg 83%
    04:00 -1°C° 0 mm 5 mps 745 mmHg 85%
    05:00 -1°C° 0 mm 5 mps 744 mmHg 87%
    06:00 -1°C° 0 mm 5 mps 744 mmHg 89%
    07:00 -1°C° 0 mm 5 mps 745 mmHg 91%
    08:00 -1°C° 0 mm 5 mps 745 mmHg 92%
    09:00 -1°C° 0 mm 5 mps 745 mmHg 92%
    10:00 0°C° 0 mm 5 mps 745 mmHg 92%
    11:00 0°C° 0 mm 5 mps 746 mmHg 92%
    12:00 0°C° 0 mm 5 mps 746 mmHg 88%
    13:00 +1°C° 0 mm 5 mps 746 mmHg 84%
    14:00 +1°C° 0 mm 5 mps 746 mmHg 79%
    15:00 0°C° 0 mm 5 mps 747 mmHg 78%
    16:00 0°C° 0 mm 4 mps 747 mmHg 76%
    17:00 -1°C° 0 mm 4 mps 748 mmHg 74%
    18:00 -2°C° 0 mm 4 mps 748 mmHg 76%
    19:00 -2°C° 0 mm 4 mps 749 mmHg 78%
    20:00 -3°C° 0 mm 4 mps 749 mmHg 80%
    21:00 -3°C° 0 mm 4 mps 750 mmHg 82%
    22:00 -2°C° 0 mm 3 mps 750 mmHg 84%
    23:00 -4°C° 0 mm 3 mps 750 mmHg 86%

    Day after tomorrow, 18 February, Monday

    Time Temperature Precipitation Wind Pressure Humidity
    00:00 -4°C° 0 mm 3 mps 751 mmHg 87%
    01:00 -4°C° 0 mm 3 mps 751 mmHg 87%
    02:00 -3°C° 0 mm 2 mps 751 mmHg 88%
    03:00 -3°C° 0 mm 2 mps 752 mmHg 88%
    04:00 -4°C° 0 mm 2 mps 752 mmHg 88%
    05:00 -4°C° 0 mm 2 mps 752 mmHg 87%
    06:00 -4°C° 0 mm 2 mps 753 mmHg 86%
    07:00 -4°C° 0 mm 2 mps 753 mmHg 86%
    08:00 -4°C° 0 mm 2 mps 753 mmHg 85%
    09:00 -3°C° 0 mm 2 mps 754 mmHg 78%
    10:00 -2°C° 0 mm 2 mps 754 mmHg 71%
    11:00 -2°C° 0 mm 2 mps 754 mmHg 63%
    12:00 +1°C° 0 mm 1 mps 754 mmHg 59%
    13:00 +1°C° 0 mm 1 mps 754 mmHg 55%
    14:00 +2°C° 0 mm 1 mps 754 mmHg 51%
    15:00 +1°C° 0 mm 1 mps 754 mmHg 55%
    16:00 +1°C° 0 mm 1 mps 754 mmHg 60%
    17:00 0°C° 0 mm 1 mps 754 mmHg 64%
    18:00 0°C° 0 mm 1 mps 754 mmHg 66%
    19:00 -3°C° 0 mm 2 mps 754 mmHg 68%
    20:00 -3°C° 0 mm 2 mps 754 mmHg 70%
    21:00 -3°C° 0 mm 2 mps 754 mmHg 70%
    22:00 -4°C° 0 mm 3 mps 754 mmHg 70%
    23:00 -4°C° 0 mm 3 mps 754 mmHg 69%

    19 February, Tuesday

    Time Temperature Precipitation Wind Pressure Humidity
    00:00 -4°C° 0 mm 3 mps 753 mmHg 68%
    01:00 -4°C° 0 mm 4 mps 753 mmHg 67%
    02:00 -4°C° 0 mm 4 mps 753 mmHg 66%
    03:00 -3°C° 0 mm 4 mps 752 mmHg 67%
    04:00 -3°C° 0 mm 4 mps 752 mmHg 68%
    05:00 -3°C° 0 mm 4 mps 751 mmHg 68%
    06:00 -4°C° 0 mm 5 mps 751 mmHg 70%
    07:00 -4°C° 0 mm 5 mps 750 mmHg 71%
    08:00 -4°C° 0 mm 5 mps 750 mmHg 73%
    09:00 -2°C° 0 mm 5 mps 750 mmHg 72%
    10:00 -1°C° 0 mm 5 mps 749 mmHg 71%
    11:00 +1°C° 0 mm 6 mps 749 mmHg 70%
    12:00 +1°C° 0 mm 6 mps 748 mmHg 70%
    13:00 +1°C° 0 mm 6 mps 748 mmHg 69%
    14:00 +2°C° 0 mm 6 mps 747 mmHg 69%
    15:00 +1°C° 0 mm 6 mps 746 mmHg 72%
    16:00 +1°C° 0 mm 5 mps 746 mmHg 76%
    17:00 0°C° 0 mm 5 mps 745 mmHg 80%
    18:00 0°C° 0 mm 5 mps 744 mmHg 81%
    19:00 0°C° 0 mm 5 mps 744 mmHg 83%
    20:00 0°C° 0 mm 5 mps 743 mmHg 85%
    21:00 0°C° 0 mm 5 mps 743 mmHg 87%
    22:00 -1°C° 0 mm 5 mps 742 mmHg 88%
    23:00 -1°C° 0 mm 4 mps 742 mmHg 90%

    20 February, Wednesday

    Time Temperature Precipitation Wind Pressure Humidity
    00:00 -1°C° 0.2 mm 5 mps 741 mmHg 90%
    01:00 -1°C° 0.2 mm 5 mps 740 mmHg 90%
    02:00 -1°C° 0.2 mm 5 mps 740 mmHg 90%
    03:00 0°C° 0.4 mm 5 mps 740 mmHg 91%
    04:00 0°C° 0.4 mm 5 mps 739 mmHg 91%
    05:00 0°C° 0.4 mm 5 mps 739 mmHg 91%
    06:00 0°C° 0.1 mm 5 mps 739 mmHg 90%
    07:00 0°C° 0.1 mm 5 mps 739 mmHg 90%
    08:00 0°C° 0.1 mm 5 mps 739 mmHg 89%
    09:00 +1°C° 0.1 mm 6 mps 739 mmHg 87%
    10:00 +1°C° 0.1 mm 6 mps 739 mmHg 85%
    11:00 +2°C° 0.1 mm 7 mps 739 mmHg 83%
    12:00 +2°C° 0.1 mm 7 mps 739 mmHg 80%
    13:00 +2°C° 0.1 mm 7 mps 739 mmHg 78%
    14:00 +1°C° 0.1 mm 8 mps 739 mmHg 75%
    15:00 0°C° 0.1 mm 7 mps 739 mmHg 76%
    16:00 0°C° 0.1 mm 7 mps 739 mmHg 77%
    17:00 -1°C° 0.1 mm 6 mps 740 mmHg 78%
    18:00 -1°C° 0 mm 6 mps 740 mmHg 76%
    19:00 -1°C° 0 mm 6 mps 740 mmHg 75%
    20:00 -2°C° 0 mm 6 mps 741 mmHg 73%
    21:00 -2°C° 0 mm 7 mps 741 mmHg 73%
    22:00 -3°C° 0 mm 7 mps 741 mmHg 73%
    23:00 -3°C° 0 mm 7 mps 741 mmHg 73%

    21 February, Thursday

    Time Temperature Precipitation Wind Pressure Humidity
    00:00 -4°C° 0 mm 7 mps 742 mmHg 73%
    01:00 -4°C° 0 mm 7 mps 742 mmHg 73%
    02:00 -4°C° 0 mm 7 mps 742 mmHg 73%
    03:00 -4°C° 0 mm 6 mps 743 mmHg 74%
    04:00 -4°C° 0 mm 6 mps 743 mmHg 74%
    05:00 -5°C° 0 mm 6 mps 743 mmHg 75%
    06:00 -4°C° 0 mm 6 mps 744 mmHg 74%
    07:00 -4°C° 0 mm 6 mps 744 mmHg 74%
    08:00 -4°C° 0 mm 6 mps 745 mmHg 73%
    09:00 -4°C° 0 mm 6 mps 745 mmHg 71%
    10:00 -4°C° 0 mm 6 mps 745 mmHg 69%
    11:00 -4°C° 0 mm 6 mps 746 mmHg 66%
    12:00 -4°C° 0 mm 5 mps 746 mmHg 65%
    13:00 -4°C° 0 mm 5 mps 746 mmHg 64%
    14:00 -4°C° 0 mm 5 mps 747 mmHg 63%
    15:00 -5°C° 0 mm 5 mps 747 mmHg 62%
    16:00 -5°C° 0 mm 5 mps 747 mmHg 62%
    17:00 -5°C° 0 mm 5 mps 748 mmHg 61%
    18:00 -5°C° 0 mm 4 mps 748 mmHg 63%
    19:00 -5°C° 0 mm 4 mps 749 mmHg 65%
    20:00 -5°C° 0 mm 3 mps 750 mmHg 67%
    21:00 -6°C° 0 mm 3 mps 750 mmHg 65%
    22:00 -6°C° 0 mm 3 mps 751 mmHg 64%
    23:00 -6°C° 0 mm 3 mps 752 mmHg 63%
    Show more